SCP
0 0 0 0 0 0 0 0 0 0 0 0 0 0 0 0 0 0 0 0 0 0
0 0 0 0 0 0 0 0 0 0 0 0 0 0 0 0 0 0 0 0 0 0
0 0 0 0 0 0 0 0 0 0 0 0 0 0 0 0 0 0 0 0 0 0
0 0 0 0 0 0 0 0 0 0 0 0 0 0 0 0 0 0 0 0 0 0
0 0 0 0 0 0 0 0 0 0 0 0 0 0 0 0 0 -0 0 0 0 0
0 0 0 0 0 0 0 0 0 0 0 0 0 0 0 0 0 -0 -0 0 0 0
0 0 0 0 0 0 0 0 0 0 0 0 0 0 0 0 -0 -0 0 0 0 0
0 0 0 0 0 0 0 0 0 0 0 0 0 0 0 0 -0 -0 -0 0 0 0
0 0 0 0 0 0 0 0 0 0 0 0 0 0 -0 -0 -0 0 0 0 0 0
0 0 0 0 0 0 0 0 0 0 0 0 0 -0 -0 -0 0 0 0 0 0 0
0 0 0 0 0 0 0 0 0 0 0 0 0 -0 -0 -0 0 0 0 0 0 0
0 0 0 0 0 0 0 0 0 0 0 0 0 -0 -0 -0 0 0 0 0 0 0
0 0 0 0 0 0 0 0 0 0 0 0 0 -0 -0 0 0 0 0 0 0 0
0 0 0 0 0 0 0 0 0 0 0 0 -0 0 0 0 0 0 0 0 0 0
Wind_Speed_500mb
49 49 45 52 65 64 62 47 43 42 42 46 51 49 50 48 49 46 52 50 54 56
49 58 65 62 57 54 47 44 44 49 56 59 59 61 65 54 58 53 47 52 47 46
55 59 61 57 55 60 49 45 48 54 57 61 62 66 53 57 51 45 40 44 38 42
54 55 52 55 57 49 45 46 51 46 60 65 61 52 49 42 37 36 33 36 34 34
45 51 59 59 51 51 48 46 51 62 58 49 45 42 36 31 26 29 31 30 25 29
51 62 64 63 56 45 44 58 68 58 44 43 42 38 31 24 25 20 26 23 16 14
62 69 66 60 47 48 57 65 50 43 37 35 35 32 25 20 20 20 16 16 16 31
64 61 58 47 47 59 53 49 51 47 39 33 31 26 20 16 14 16 16 8 9 24
58 57 52 50 56 55 54 51 44 38 24 26 28 20 13 17 11 8 9 6 8 17
55 54 55 57 56 55 49 43 38 29 26 24 17 6 8 12 14 9 7 6 9 14
47 53 61 58 53 47 43 41 39 29 17 20 7 6 6 6 12 11 6 7 10 17
47 56 62 53 47 43 40 38 36 24 20 13 10 7 9 10 7 10 9 16 16 16
44 60 55 46 42 40 36 34 25 16 8 10 13 9 13 19 13 14 12 17 22 17
46 56 44 41 40 38 34 33 17 8 11 9 10 10 19 20 21 17 18 19 20 20
Wind_Direction_500mb
312 307 306 301 309 308 309 301 291 294 293 288 294 296 293 287 290 291 285 290 279 267
310 310 312 312 314 311 308 303 295 287 289 298 295 295 296 286 286 289 289 293 284 267
310 313 310 310 305 306 301 304 301 295 293 298 299 302 294 285 286 276 281 297 280 275
314 321 317 310 308 306 301 304 305 296 299 302 299 299 295 289 275 275 287 297 275 281
320 311 308 308 312 308 308 303 300 303 305 308 303 301 301 288 270 274 284 295 285 264
313 311 317 318 321 321 313 312 307 307 304 304 303 297 293 279 269 284 277 288 264 230
315 316 318 320 324 320 311 314 315 309 305 305 308 292 282 270 256 273 271 279 242 223
320 324 330 330 322 322 324 323 321 313 298 289 303 294 270 260 244 266 266 263 266 214
335 340 339 330 324 326 329 330 321 327 310 299 297 291 257 229 241 262 247 218 217 200
337 335 332 331 331 333 336 339 337 324 317 337 300 222 218 237 216 210 233 212 190 163
337 334 332 335 339 340 340 339 339 334 317 321 296 170 176 152 153 154 173 146 154 153
342 333 334 339 342 342 340 345 346 330 332 309 172 159 172 142 137 147 157 143 135 138
338 334 337 341 341 339 338 340 346 352 19 127 141 149 146 148 132 140 136 139 144 123
334 340 342 344 344 344 343 335 346 62 88 109 136 150 147 140 130 134 123 123 133 135
Wind_Speed_850mb
49 49 45 52 65 64 62 47 43 42 42 46 51 49 50 48 49 46 52 50 54 56
49 58 65 62 57 54 47 44 44 49 56 59 59 61 65 54 58 53 47 52 47 46
55 59 61 57 55 60 49 45 48 54 57 61 62 66 53 57 51 45 40 44 38 42
54 55 52 55 57 49 45 46 51 46 60 65 61 52 49 42 37 36 33 36 34 34
45 51 59 59 51 51 48 46 51 62 58 49 45 42 36 31 26 29 31 30 25 29
51 62 64 63 56 45 44 58 68 58 44 43 42 38 31 24 25 20 26 23 16 14
62 69 66 60 47 48 57 65 50 43 37 35 35 32 25 20 20 20 16 16 16 31
64 61 58 47 47 59 53 49 51 47 39 33 31 26 20 16 14 16 16 8 9 24
58 57 52 50 56 55 54 51 44 38 24 26 28 20 13 17 11 8 9 6 8 17
55 54 55 57 56 55 49 43 38 29 26 24 17 6 8 12 14 9 7 6 9 14
47 53 61 58 53 47 43 41 39 29 17 20 7 6 6 6 12 11 6 7 10 17
47 56 62 53 47 43 40 38 36 24 20 13 10 7 9 10 7 10 9 16 16 16
44 60 55 46 42 40 36 34 25 16 8 10 13 9 13 19 13 14 12 17 22 17
46 56 44 41 40 38 34 33 17 8 11 9 10 10 19 20 21 17 18 19 20 20
Wind_Direction_850mb
312 307 306 301 309 308 309 301 291 294 293 288 294 296 293 287 290 291 285 290 279 267
310 310 312 312 314 311 308 303 295 287 289 298 295 295 296 286 286 289 289 293 284 267
310 313 310 310 305 306 301 304 301 295 293 298 299 302 294 285 286 276 281 297 280 275
314 321 317 310 308 306 301 304 305 296 299 302 299 299 295 289 275 275 287 297 275 281
320 311 308 308 312 308 308 303 300 303 305 308 303 301 301 288 270 274 284 295 285 264
313 311 317 318 321 321 313 312 307 307 304 304 303 297 293 279 269 284 277 288 264 230
315 316 318 320 324 320 311 314 315 309 305 305 308 292 282 270 256 273 271 279 242 223
320 324 330 330 322 322 324 323 321 313 298 289 303 294 270 260 244 266 266 263 266 214
335 340 339 330 324 326 329 330 321 327 310 299 297 291 257 229 241 262 247 218 217 200
337 335 332 331 331 333 336 339 337 324 317 337 300 222 218 237 216 210 233 212 190 163
337 334 332 335 339 340 340 339 339 334 317 321 296 170 176 152 153 154 173 146 154 153
342 333 334 339 342 342 340 345 346 330 332 309 172 159 172 142 137 147 157 143 135 138
338 334 337 341 341 339 338 340 346 352 19 127 141 149 146 148 132 140 136 139 144 123
334 340 342 344 344 344 343 335 346 62 88 109 136 150 147 140 130 134 123 123 133 135